• In Uzbekistan
  • List of Countries
  • For 7 days
  • Water Temperature
  • Satellite Maps
  • Weather Map
  • Weather Widgets
  • user-avatar
    Login

    Hourly Weather Frontera Comalapa

    Today, 20 April, Friday

    Time Temperature Precipitation Wind Pressure Humidity
    00:00 +24°C° 0 mm 2 mps 702 mmHg 73%
    01:00 +24°C° 0 mm 1 mps 702 mmHg 74%
    02:00 +24°C° 0 mm 1 mps 702 mmHg 74%
    03:00 +23°C° 0 mm 1 mps 702 mmHg 74%
    04:00 +23°C° 0 mm 1 mps 702 mmHg 75%
    05:00 +23°C° 0 mm 1 mps 702 mmHg 75%
    06:00 +23°C° 0 mm 1 mps 702 mmHg 75%
    07:00 +25°C° 0 mm 2 mps 702 mmHg 65%
    08:00 +28°C° 0 mm 2 mps 703 mmHg 55%
    09:00 +30°C° 0 mm 2 mps 703 mmHg 45%
    10:00 +32°C° 0 mm 2 mps 703 mmHg 41%
    11:00 +35°C° 0 mm 2 mps 703 mmHg 36%
    12:00 +37°C° 0 mm 2 mps 703 mmHg 32%
    13:00 +36°C° 0 mm 3 mps 702 mmHg 32%
    14:00 +36°C° 0 mm 3 mps 702 mmHg 33%
    15:00 +36°C° 0 mm 3 mps 701 mmHg 34%
    16:00 +34°C° 0.1 mm 3 mps 701 mmHg 40%
    17:00 +31°C° 0.1 mm 3 mps 701 mmHg 46%
    18:00 +30°C° 0.1 mm 3 mps 701 mmHg 52%
    19:00 +28°C° 0.1 mm 3 mps 701 mmHg 58%
    20:00 +27°C° 0.1 mm 2 mps 702 mmHg 64%
    21:00 +26°C° 0.1 mm 2 mps 702 mmHg 70%
    22:00 +25°C° 0 mm 2 mps 702 mmHg 71%
    23:00 +25°C° 0 mm 2 mps 702 mmHg 72%

    Tomorrow, 21 April, Saturday

    Time Temperature Precipitation Wind Pressure Humidity
    00:00 +24°C° 0 mm 1 mps 702 mmHg 73%
    01:00 +24°C° 0 mm 1 mps 702 mmHg 73%
    02:00 +24°C° 0 mm 1 mps 701 mmHg 72%
    03:00 +23°C° 0 mm 1 mps 701 mmHg 72%
    04:00 +23°C° 0 mm 1 mps 701 mmHg 72%
    05:00 +23°C° 0 mm 1 mps 701 mmHg 72%
    06:00 +23°C° 0 mm 1 mps 701 mmHg 71%
    07:00 +26°C° 0 mm 1 mps 701 mmHg 62%
    08:00 +29°C° 0 mm 1 mps 702 mmHg 52%
    09:00 +32°C° 0 mm 1 mps 702 mmHg 42%
    10:00 +33°C° 0 mm 1 mps 702 mmHg 39%
    11:00 +35°C° 0 mm 1 mps 702 mmHg 35%
    12:00 +37°C° 0 mm 1 mps 702 mmHg 31%
    13:00 +36°C° 0.1 mm 1 mps 701 mmHg 33%
    14:00 +37°C° 0.1 mm 2 mps 700 mmHg 35%
    15:00 +36°C° 0.1 mm 2 mps 700 mmHg 38%
    16:00 +35°C° 0.3 mm 2 mps 700 mmHg 43%
    17:00 +32°C° 0.3 mm 2 mps 700 mmHg 48%
    18:00 +31°C° 0.3 mm 2 mps 700 mmHg 54%
    19:00 +29°C° 0.1 mm 2 mps 700 mmHg 59%
    20:00 +28°C° 0.1 mm 2 mps 701 mmHg 65%
    21:00 +27°C° 0.1 mm 1 mps 701 mmHg 70%
    22:00 +26°C° 0 mm 1 mps 701 mmHg 71%
    23:00 +26°C° 0 mm 1 mps 701 mmHg 72%

    Day after tomorrow, 22 April, Sunday

    Time Temperature Precipitation Wind Pressure Humidity
    00:00 +25°C° 0 mm 1 mps 701 mmHg 73%
    01:00 +25°C° 0 mm 1 mps 701 mmHg 74%
    02:00 +25°C° 0 mm 1 mps 700 mmHg 74%
    03:00 +24°C° 0 mm 1 mps 700 mmHg 74%
    04:00 +24°C° 0 mm 1 mps 700 mmHg 74%
    05:00 +24°C° 0 mm 1 mps 700 mmHg 74%
    06:00 +24°C° 0 mm 1 mps 700 mmHg 73%
    07:00 +27°C° 0 mm 1 mps 701 mmHg 64%
    08:00 +30°C° 0 mm 1 mps 701 mmHg 54%
    09:00 +32°C° 0 mm 1 mps 702 mmHg 45%
    10:00 +34°C° 0.1 mm 1 mps 702 mmHg 42%
    11:00 +35°C° 0.1 mm 1 mps 702 mmHg 39%
    12:00 +37°C° 0.1 mm 2 mps 702 mmHg 36%
    13:00 +37°C° 0.2 mm 2 mps 701 mmHg 36%
    14:00 +37°C° 0.2 mm 2 mps 700 mmHg 36%
    15:00 +37°C° 0.2 mm 2 mps 699 mmHg 36%
    16:00 +35°C° 0.2 mm 2 mps 699 mmHg 40%
    17:00 +34°C° 0.2 mm 2 mps 699 mmHg 44%
    18:00 +32°C° 0.2 mm 2 mps 699 mmHg 48%
    19:00 +30°C° 0.1 mm 2 mps 700 mmHg 54%
    20:00 +29°C° 0.1 mm 2 mps 700 mmHg 59%
    21:00 +27°C° 0.1 mm 2 mps 701 mmHg 64%
    22:00 +27°C° 0 mm 1 mps 701 mmHg 66%
    23:00 +26°C° 0 mm 1 mps 701 mmHg 68%

    23 April, Monday

    Time Temperature Precipitation Wind Pressure Humidity
    00:00 +26°C° 0 mm 1 mps 701 mmHg 69%
    01:00 +25°C° 0 mm 1 mps 701 mmHg 70%
    02:00 +25°C° 0 mm 1 mps 700 mmHg 71%
    03:00 +25°C° 0 mm 1 mps 700 mmHg 71%
    04:00 +24°C° 0 mm 1 mps 700 mmHg 71%
    05:00 +24°C° 0 mm 1 mps 700 mmHg 71%
    06:00 +24°C° 0 mm 1 mps 700 mmHg 71%
    07:00 +27°C° 0 mm 1 mps 701 mmHg 62%
    08:00 +29°C° 0 mm 1 mps 702 mmHg 53%
    09:00 +32°C° 0 mm 1 mps 702 mmHg 45%
    10:00 +34°C° 0 mm 1 mps 702 mmHg 40%
    11:00 +36°C° 0 mm 1 mps 702 mmHg 35%
    12:00 +39°C° 0 mm 2 mps 702 mmHg 30%
    13:00 +38°C° 0 mm 2 mps 701 mmHg 30%
    14:00 +38°C° 0 mm 2 mps 701 mmHg 31%
    15:00 +38°C° 0 mm 3 mps 700 mmHg 32%
    16:00 +36°C° 0.1 mm 3 mps 700 mmHg 38%
    17:00 +34°C° 0.1 mm 3 mps 700 mmHg 43%
    18:00 +31°C° 0.1 mm 2 mps 700 mmHg 49%
    19:00 +30°C° 0 mm 2 mps 701 mmHg 53%
    20:00 +29°C° 0 mm 2 mps 701 mmHg 58%
    21:00 +27°C° 0 mm 2 mps 702 mmHg 62%
    22:00 +27°C° 0 mm 1 mps 702 mmHg 63%
    23:00 +26°C° 0 mm 1 mps 702 mmHg 64%

    24 April, Tuesday

    Time Temperature Precipitation Wind Pressure Humidity
    00:00 +26°C° 0 mm 1 mps 702 mmHg 65%
    01:00 +25°C° 0 mm 1 mps 701 mmHg 66%
    02:00 +25°C° 0 mm 1 mps 701 mmHg 66%
    03:00 +25°C° 0 mm 1 mps 700 mmHg 67%
    04:00 +25°C° 0 mm 1 mps 700 mmHg 67%
    05:00 +24°C° 0 mm 1 mps 700 mmHg 67%
    06:00 +24°C° 0 mm 1 mps 701 mmHg 68%
    07:00 +27°C° 0 mm 1 mps 701 mmHg 60%
    08:00 +29°C° 0 mm 1 mps 702 mmHg 53%
    09:00 +32°C° 0 mm 1 mps 703 mmHg 45%
    10:00 +34°C° 0 mm 1 mps 703 mmHg 41%
    11:00 +35°C° 0 mm 1 mps 702 mmHg 36%
    12:00 +38°C° 0 mm 2 mps 702 mmHg 32%
    13:00 +38°C° 0.1 mm 2 mps 702 mmHg 33%
    14:00 +37°C° 0.1 mm 2 mps 701 mmHg 34%
    15:00 +37°C° 0.1 mm 2 mps 700 mmHg 35%
    16:00 +35°C° 0.4 mm 2 mps 700 mmHg 40%
    17:00 +34°C° 0.4 mm 2 mps 701 mmHg 45%
    18:00 +31°C° 0.4 mm 2 mps 701 mmHg 50%
    19:00 +30°C° 0.1 mm 2 mps 701 mmHg 54%
    20:00 +28°C° 0.1 mm 2 mps 702 mmHg 58%
    21:00 +27°C° 0.1 mm 1 mps 702 mmHg 62%
    22:00 +27°C° 0 mm 1 mps 702 mmHg 62%
    23:00 +26°C° 0 mm 1 mps 702 mmHg 63%

    25 April, Wednesday

    Time Temperature Precipitation Wind Pressure Humidity
    00:00 +26°C° 0 mm 1 mps 702 mmHg 63%
    01:00 +26°C° 0 mm 1 mps 702 mmHg 65%
    02:00 +25°C° 0 mm 1 mps 701 mmHg 66%
    03:00 +25°C° 0 mm 1 mps 701 mmHg 67%
    04:00 +24°C° 0 mm 1 mps 701 mmHg 68%
    05:00 +24°C° 0 mm 1 mps 701 mmHg 69%
    06:00 +24°C° 0 mm 1 mps 701 mmHg 70%
    07:00 +27°C° 0 mm 1 mps 702 mmHg 63%
    08:00 +29°C° 0 mm 1 mps 703 mmHg 56%
    09:00 +32°C° 0 mm 1 mps 703 mmHg 48%
    10:00 +33°C° 0 mm 1 mps 703 mmHg 45%
    11:00 +34°C° 0 mm 1 mps 703 mmHg 42%
    12:00 +36°C° 0 mm 1 mps 702 mmHg 39%
    13:00 +36°C° 0.4 mm 2 mps 702 mmHg 41%
    14:00 +36°C° 0.4 mm 2 mps 701 mmHg 44%
    15:00 +35°C° 0.4 mm 2 mps 700 mmHg 46%
    16:00 +34°C° 1 mm 2 mps 700 mmHg 51%
    17:00 +31°C° 1 mm 2 mps 700 mmHg 56%
    18:00 +30°C° 1 mm 2 mps 700 mmHg 61%
    19:00 +29°C° 1.2 mm 2 mps 701 mmHg 66%
    20:00 +28°C° 1.2 mm 1 mps 701 mmHg 70%
    21:00 +27°C° 1.2 mm 1 mps 702 mmHg 75%
    22:00 +26°C° 0.6 mm 1 mps 702 mmHg 76%
    23:00 +26°C° 0.6 mm 1 mps 702 mmHg 77%
    Show more